NOAA 16 DEB, 41249

Orbit data source: Space-Track

NOAA 16 DEB, 41249 is space debris in SSO originally from a launch on Thu, 21 Sep 2000 UTC launched from the Air Force Western Test Range (AFWTR). Debris objects in space refer to the collection of defunct objects orbiting the Earth. Examples of debris include non-operational satellites, rocket bodies, and fragments generated from explosions, collisions, or faulty payload assembly.

Loading next visibility...
Identifier
41249, 2000-055EZ
Orbit
SSO
Country
Flag of USUS
Related business
Manufacturer
Unknown
Mission
Spacecraft
Bus & Motor
Unknown
Mass
Unknown
Launch date (UTC)
2000-09-21 (25 years ago)
Launch vehicle
Unknown
Launch site
Air Force Western Test Range (AFWTR)
Object type
Payload
Rocket body
Debris
Shape & HBR
Unknown shape, 0.1 m
Radar Cross Section
Small (<0.1 m²)

Expand to show TLE details & history
Last TLE update: 14 hours ago

TLE from 14 hours ago
0 NOAA 16 DEB
1 41249U 00055EZ  25353.84334931  .00006600  00000-0  14763-2 0  9998
2 41249  98.9620 207.2380 0030673 218.0904 141.8124 14.56787056519668
Epoch: 2025-12-19T20:14Z
TLE epoch observation values (Epoch: 2025-12-19T20:14:25.380Z)
Latitude
0.00001°
Longitude
174.95356°
Altitude
723.626 km
Speed
7.484 km/s
True Right ascension
13h 48m 57s
True Declination
0° 00' 00"
Sunlit
Object was in daylight at epoch
Visualization orbit readout
Latitude
Unknown
Longitude
Unknown
Altitude
Unknown
Speed
Unknown
Apparent Right ascension
Unknown
Apparent Declination
Unknown
Sunlit
N/A
Visualization observer readout
Local Sidereal Time
09:30:19
Azimuth
Unknown
Elevation
Unknown
Doppler factor
Unknown
Orbital elements
Apogee altitude
722.402 km
Perigee altitude
678.977 km
Semi-major axis
7,078.826 km
Eccentricity
0.00307
Inclination
98.962°
RAAN
207.238°
Arg. of periapsis
218.0904°
True anomaly
142.02905°
Mean anomaly
141.8124°
Eccentric anomaly
141.92079°
Mean motion
3.64419 °/min
Orbital period
98.79 mins
BSTAR
0.0014763
Loading maneuver chart data...
Computing Atmospheric mass density...
Loading historical data...
Loading historical data...
Loading historical data...
Loading historical data...
Loading historical data...
Loading historical data...
Loading historical data...

Documentation

Showing up to 5 results
|